sat.trackr.live / text

‹ back to catalog

2024-199R

NORAD 61750 · 2024-199R

PAYLOAD ACTIVE UNKNOWN

§ Identity

Operator
Country
TBD
Launch date
2024-11-04
Launch site
VOSTO
Launch vehicle
Mass (kg)
RCS (m²)

External: N2YO · Heavens-Above · Gunter

§ Orbital elements

Epoch: 2026-05-25T03:49:53.156928Z

Period
92.70 min
Inclination
97.2998°
Eccentricity
0.0007111
Mean motion
15.53377373 rev/d
Perigee alt
402.0 km
Apogee alt
411.7 km
Semi-major
6,785.0 km
B*
5.3983e-4
RAAN
20.4155°
Arg perigee
29.5517°
Mean anomaly
330.6137°
Rev number
13,397

§ Raw data

2024-199R1 61750U 24199R   26145.15964302  .00034151  00000+0  53983-3 0  99962 61750  97.2998  20.4155 0007111  29.5517 330.6137 15.53377373133971

JSON: /api/v1/satellites/61750 · /tle

For live sub-satellite position, see the globe view (requires WebGL).

§ Visibility from observer

Set your observer location to see the next 7 days of passes ≥ 10°. The values pass through the URL so the page stays shareable.

No JS? Fill the form by hand. The geolocation button needs JavaScript.

§ Radio — SatNOGS DB

ModeDescriptionDownlinkUplink
LoRa 125k LoRa 438.100 MHz
FSK Mode U - Transmitter 435.600 MHz

2 transmitters · refreshed weekly from db.satnogs.org